Change the Weather History Date:

Friday, November 22, 2013

  Actual Average (KFLL) Record (KFLL)
Temperature  
Mean Temperature 76 °F 75 °F  
Max Temperature 81 °F 81 °F 87 °F (1947)
Min Temperature 71 °F 68 °F 43 °F (1952)
Degree Days  
Heating Degree Days 0 0  
Month to date heating degree days 0  
Since 1 July heating degree days 0  
Cooling Degree Days 11 10  
Month to date cooling degree days 246  
Year to date cooling degree days 4440  
Growing Degree Days 26 (Base 50)    
Moisture  
Dew Point 71 °F    
Average Humidity 84    
Maximum Humidity 100    
Minimum Humidity 69    
Precipitation  
Precipitation 0.74 in 0.07 in 1.15 in (1985)
Month to date precipitation 2.51  
Year to date precipitation 58.99  
Snow  
Snow 0.00 in - - ()
Month to date snowfall  
Since 1 July snowfall  
Since 1 September snowfall  
Snow Depth -    
Sea Level Pressure  
Sea Level Pressure 30.11 in    
Wind  
Wind Speed 10 mph (NE)    
Max Wind Speed 18 mph    
Max Gust Speed 25 mph    
Visibility 9 miles    
Events Rain , Thunderstorm    
T = Trace of Precipitation, MM = Missing Value Source: NWS Daily Summary

Daily Weather History Graph

Daily Weather History Graph

Search for Another Location

Airport or City:

Trip Planner

Search our weather history database for the weather conditions in past years. The results will help you decide how hot, cold, wet, or windy it might be!

Date:

Astronomy

Nov. 22, 2013 Rise Set
Actual Time 6:44 AM EST 5:29 PM EST
Civil Twilight 6:19 AM EST 5:54 PM EST
Nautical Twilight 5:51 AM EST 6:22 PM EST
Astronomical Twilight 5:24 AM EST 6:50 PM EST
Moon 9:52 PM EST (11/22) 10:32 AM EST (11/22)
Length of Visible Light 11h 34m
Length of Day
10h 45m
Waning Gibbous, 78% of the Moon is Illuminated
Nov 22
Waning Gibbous
Nov 25
Last Quarter
Dec 2
New
Dec 9
First Quarter
Dec 17
Full

Hourly Weather History & Observations

Time (EST) Temp. Heat Index Dew Point Humidity Pressure Visibility Wind Dir Wind Speed Gust Speed Precip Events Conditions
12:26 AM 75.2 °F - 71.6 °F 89% 30.13 in 10.0 mi ENE 10.4 mph - 0.00 in Thunderstorm Mostly Cloudy
12:53 AM 73.9 °F - 72.0 °F 93% 30.14 in 10.0 mi ENE 11.5 mph - 0.00 in   Overcast
1:53 AM 73.0 °F - 71.1 °F 93% 30.13 in 8.0 mi ESE 15.0 mph - 0.04 in Rain Light Rain
2:42 AM 73.4 °F - 71.6 °F 94% 30.12 in 10.0 mi ENE 6.9 mph - 0.00 in Thunderstorm Mostly Cloudy
2:53 AM 73.0 °F - 71.1 °F 93% 30.12 in 10.0 mi East 6.9 mph - 0.00 in Thunderstorm Mostly Cloudy
3:19 AM 71.6 °F - 71.6 °F 100% 30.12 in 2.5 mi Variable 4.6 mph - 0.23 in Rain Heavy Rain
3:22 AM 73.4 °F - 71.6 °F 94% 30.11 in 1.8 mi East 8.1 mph - 0.33 in Rain Heavy Rain
3:25 AM 73.4 °F - 71.6 °F 94% 30.11 in 2.0 mi Variable 4.6 mph - 0.35 in Rain , Thunderstorm Heavy Rain
3:31 AM 71.6 °F - 71.6 °F 100% 30.12 in 3.0 mi NW 6.9 mph - 0.41 in Rain , Thunderstorm Heavy Rain
3:38 AM 71.6 °F - 71.6 °F 100% 30.11 in 2.0 mi WNW 8.1 mph - 0.49 in Rain , Thunderstorm Heavy Thunderstorms and Rain
3:53 AM 72.0 °F - 71.1 °F 97% 30.12 in 3.0 mi NW 4.6 mph - 0.60 in Rain , Thunderstorm Light Rain
4:09 AM 73.4 °F - 71.6 °F 94% 30.11 in 10.0 mi Calm Calm - 0.02 in Rain , Thunderstorm Light Rain
4:19 AM 73.4 °F - 73.4 °F 100% 30.11 in 10.0 mi Calm Calm - 0.02 in Rain Light Rain
4:27 AM 73.4 °F - 71.6 °F 94% 30.11 in 10.0 mi South 5.8 mph - 0.02 in Rain , Thunderstorm Light Rain
4:36 AM 73.4 °F - 71.6 °F 94% 30.11 in 10.0 mi West 3.5 mph - 0.02 in Rain Light Rain
4:45 AM 73.4 °F - 71.6 °F 94% 30.11 in 10.0 mi Calm Calm - 0.03 in Rain Light Rain
4:53 AM 73.0 °F - 72.0 °F 96% 30.11 in 10.0 mi Calm Calm - 0.04 in Rain Light Rain
5:15 AM 75.2 °F - 71.6 °F 89% 30.12 in 10.0 mi NE 10.4 mph - 0.00 in Rain Light Rain
5:53 AM 75.0 °F - 71.1 °F 87% 30.12 in 10.0 mi NE 12.7 mph - 0.00 in   Scattered Clouds
6:53 AM 75.9 °F - 71.1 °F 85% 30.13 in 10.0 mi ENE 15.0 mph - N/A   Mostly Cloudy
7:53 AM 77.0 °F - 71.1 °F 82% 30.14 in 10.0 mi ENE 17.3 mph - N/A   Mostly Cloudy
8:53 AM 78.1 °F - 71.1 °F 79% 30.15 in 10.0 mi ENE 17.3 mph 23.0 mph N/A   Mostly Cloudy
9:53 AM 80.1 °F 83.6 °F 71.1 °F 74% 30.17 in 10.0 mi ENE 17.3 mph 21.9 mph N/A   Mostly Cloudy
10:53 AM 81.0 °F 84.9 °F 71.1 °F 72% 30.16 in 10.0 mi ENE 16.1 mph 25.3 mph N/A   Overcast
11:53 AM 80.1 °F 83.2 °F 70.0 °F 71% 30.14 in 10.0 mi ENE 17.3 mph - N/A   Mostly Cloudy
12:05 PM 80.6 °F 83.9 °F 69.8 °F 70% 30.14 in 10.0 mi ENE 18.4 mph 24.2 mph N/A   Mostly Cloudy
12:37 PM 80.6 °F 83.9 °F 69.8 °F 70% 30.12 in 10.0 mi ENE 16.1 mph - N/A   Overcast
12:53 PM 80.1 °F 82.9 °F 69.1 °F 69% 30.11 in 10.0 mi ENE 15.0 mph 24.2 mph N/A   Overcast
1:21 PM 80.6 °F 83.9 °F 69.8 °F 70% 30.10 in 10.0 mi ENE 16.1 mph 21.9 mph N/A   Overcast
1:37 PM 78.8 °F - 69.8 °F 74% 30.09 in 10.0 mi ENE 17.3 mph - N/A   Overcast
1:53 PM 79.0 °F - 70.0 °F 74% 30.09 in 10.0 mi NE 18.4 mph 23.0 mph N/A   Overcast
2:50 PM 80.6 °F 83.9 °F 69.8 °F 70% 30.08 in 10.0 mi NE 13.8 mph - N/A   Overcast
2:53 PM 80.1 °F 83.2 °F 70.0 °F 71% 30.08 in 10.0 mi ENE 13.8 mph 21.9 mph N/A   Overcast
3:53 PM 79.0 °F - 70.0 °F 74% 30.09 in 10.0 mi NE 12.7 mph - N/A   Overcast
4:53 PM 78.1 °F - 69.1 °F 74% 30.09 in 10.0 mi NE 12.7 mph - N/A   Overcast
5:53 PM 77.0 °F - 69.1 °F 76% 30.09 in 10.0 mi NE 11.5 mph - N/A   Mostly Cloudy
6:53 PM 77.0 °F - 69.1 °F 76% 30.09 in 10.0 mi NE 9.2 mph - N/A   Mostly Cloudy
7:53 PM 75.9 °F - 69.1 °F 79% 30.09 in 10.0 mi NE 8.1 mph - N/A   Scattered Clouds
8:53 PM 75.9 °F - 69.1 °F 79% 30.10 in 10.0 mi NE 9.2 mph - N/A   Scattered Clouds
9:53 PM 77.0 °F - 70.0 °F 79% 30.11 in 10.0 mi NE 11.5 mph - 0.00 in   Overcast
10:53 PM 77.0 °F - 70.0 °F 79% 30.11 in 10.0 mi ENE 11.5 mph - N/A   Overcast
11:53 PM 73.9 °F - 71.1 °F 91% 30.09 in 6.0 mi NE 9.2 mph - 0.06 in Rain Light Rain